RH
70 66 60 54 49 49 54 54 47 40 30 22 22 16 26 34 48 54 62 66 66 46 23 11 7 9 12 29 53 54 57 70 67 75 68 53 39 22 9 9 11 13 13
64 57 56 56 54 49 56 57 51 43 34 24 20 17 25 36 47 46 62 68 67 42 23 9 7 9 13 19 37 52 67 76 69 66 61 47 23 10 10 13 15 14 14
68 64 66 65 60 57 54 60 56 47 38 26 20 20 22 39 48 55 59 71 67 38 16 8 8 10 18 15 20 31 60 67 58 55 45 28 12 10 12 16 16 15 14
64 65 66 67 62 58 54 60 61 53 43 31 22 24 23 36 52 60 62 74 64 33 9 7 10 12 13 15 18 28 57 65 58 48 30 12 10 12 16 17 16 15 13
67 73 67 62 69 71 70 65 64 59 49 38 26 26 31 39 52 62 66 78 66 38 8 8 16 14 14 17 20 25 56 59 42 28 15 12 13 16 18 16 16 14 10
67 70 62 67 72 75 76 72 68 64 56 46 32 28 42 50 55 60 71 79 65 45 12 9 13 15 16 18 20 25 45 44 30 17 13 13 16 18 18 16 16 10 8
63 62 65 71 67 70 83 83 74 70 65 53 42 36 55 59 63 57 69 78 61 46 14 11 15 16 15 17 18 20 24 21 14 14 15 16 19 20 16 16 11 8 10
65 58 60 63 72 75 79 83 88 77 70 62 52 42 54 60 61 56 75 76 58 49 22 12 16 16 16 17 17 16 15 14 16 15 16 20 21 18 17 12 9 15 24
62 60 58 55 58 69 79 83 87 87 83 78 60 48 45 55 57 59 75 72 59 59 39 11 16 16 16 17 15 14 14 16 17 17 20 22 20 18 16 10 21 29 30
59 63 59 56 57 58 66 81 80 85 85 86 73 56 42 48 57 62 79 75 63 67 48 15 16 17 17 17 14 14 17 16 18 19 22 23 19 19 13 20 31 31 30
45 54 60 61 58 58 59 62 83 86 98 91 87 77 50 46 54 57 69 75 67 67 48 17 16 17 17 15 14 15 17 18 19 22 22 19 19 19 19 31 30 29 28
36 39 43 46 60 57 59 59 66 87 90 100 91 87 75 40 45 44 66 75 72 67 64 23 17 17 16 15 16 16 18 20 22 23 20 19 22 15 30 32 30 27 28
30 28 32 34 30 46 53 56 57 64 92 98 99 92 85 54 39 35 44 75 74 68 68 38 18 18 16 15 17 18 19 22 23 22 18 23 17 27 31 31 28 27 28
27 23 18 12 19 15 29 43 52 55 71 95 100 99 89 81 62 44 33 53 84 68 70 51 23 22 16 15 19 18 19 22 23 18 20 20 24 31 32 28 28 29 39
23 21 18 13 8 7 16 24 40 51 58 93 98 99 98 89 86 48 46 40 76 74 74 60 26 25 18 16 19 19 23 24 21 18 20 23 28 31 29 27 36 48 51
24 20 16 10 7 4 6 12 21 33 51 62 99 96 98 93 86 83 60 48 70 77 82 70 29 27 20 18 19 22 24 24 19 19 23 26 30 27 30 44 51 53 52
14 10 10 6 5 4 4 5 5 7 21 49 72 93 100 98 93 91 81 56 71 78 83 79 37 29 22 17 20 24 24 22 20 23 26 29 27 35 49 53 53 50 49
8 7 6 7 6 5 5 5 5 4 7 32 60 76 98 94 99 92 76 72 64 80 82 87 51 26 23 18 21 24 24 23 23 28 29 27 40 51 54 52 49 51 59
10 9 9 7 6 6 6 5 4 5 4 12 51 63 97 94 98 93 86 83 65 80 80 92 62 26 25 19 23 27 26 24 27 30 30 42 53 54 52 50 54 59 63
17 13 10 9 8 6 7 7 5 5 5 4 13 49 63 90 98 98 95 93 67 84 88 95 76 31 27 23 26 29 29 29 29 31 43 54 55 52 50 57 60 59 70
24 18 12 9 8 8 8 8 7 5 5 4 4 11 45 85 100 98 97 89 69 81 85 92 84 34 28 25 31 33 30 29 30 37 53 55 53 51 55 58 57 64 71
31 28 21 16 14 12 10 8 8 6 5 4 4 6 13 58 99 98 95 88 71 88 88 100 88 48 29 27 26 31 30 29 34 46 54 54 52 53 56 56 61 72 68
38 34 30 25 19 16 12 11 10 8 13 14 6 8 14 33 75 96 96 87 77 98 94 94 91 61 28 26 25 30 29 24 36 51 55 54 53 55 54 56 70 70 61
29 34 35 30 24 22 17 14 11 10 12 18 14 12 24 32 66 98 98 95 88 98 100 90 92 72 29 29 26 27 33 29 41 49 54 53 53 53 54 57 63 57 62
16 29 31 26 22 22 14 12 12 12 19 28 29 31 24 31 49 100 97 96 87 96 100 94 90 82 29 31 26 27 29 30 47 54 54 54 54 54 57 56 57 55 54
17 29 27 24 22 20 19 21 19 19 33 44 38 41 50 34 58 95 100 99 90 89 100 95 82 85 30 31 28 30 35 30 38 53 54 54 55 57 56 56 56 56 57
Wind_Speed
15 11 10 9 4 3 4 3 5 6 6 7 7 7 8 7 7 6 5 3 1 1 2 2 3 5 4 7 10 8 10 11 10 10 8 5 5 5 5 7 8 8 8
15 13 11 8 6 6 4 5 6 7 8 8 8 9 9 8 7 6 5 3 2 1 2 3 4 5 5 5 9 9 10 10 8 7 5 4 4 4 6 7 8 7 8
19 15 13 11 8 7 6 6 6 8 9 10 9 10 10 9 8 7 6 4 2 3 3 5 5 3 3 5 7 8 10 9 7 6 3 2 3 5 6 7 7 7 8
19 14 12 12 13 12 10 8 8 9 10 11 11 11 11 11 9 8 7 5 3 4 5 6 5 3 2 5 6 8 10 9 7 5 3 2 4 5 6 7 7 8 9
14 14 14 14 12 13 13 11 11 11 11 12 12 12 12 12 10 10 8 7 6 5 5 6 5 2 3 6 6 7 9 8 7 5 3 3 4 5 6 6 7 8 9
15 15 16 15 12 14 15 14 12 13 13 13 14 13 13 13 12 11 10 8 7 7 7 8 5 3 4 5 6 7 8 7 6 4 4 4 5 5 5 6 7 8 10
20 17 15 17 18 15 17 18 18 15 15 15 15 14 15 14 14 12 11 10 8 7 8 9 6 5 5 6 6 7 7 7 6 6 6 6 5 4 5 6 8 9 10
23 23 22 17 17 17 15 20 20 19 18 17 16 16 16 16 15 13 13 11 8 8 9 9 7 6 6 7 7 7 7 7 7 7 7 6 4 4 6 7 9 10 10
26 27 27 27 25 21 19 17 23 22 21 19 19 18 19 18 18 16 14 13 10 9 10 10 8 7 7 8 9 8 8 8 8 7 7 6 4 5 6 8 9 9 9
30 28 30 31 30 29 24 21 21 24 24 23 22 21 22 22 20 19 17 15 12 11 11 12 11 8 7 9 9 9 10 9 8 8 7 6 5 7 8 7 8 8 8
37 34 32 33 34 34 31 29 24 26 28 28 27 26 26 25 24 22 20 18 15 14 13 13 13 9 9 10 10 11 10 10 9 8 6 6 7 8 8 7 6 6 7
44 43 40 35 36 39 37 35 33 27 29 31 29 30 29 27 27 25 22 22 19 18 17 16 14 11 10 11 11 11 11 11 10 8 6 7 8 9 7 5 5 5 7
44 47 48 44 40 40 44 40 39 37 31 34 34 34 33 31 31 29 29 26 24 22 19 17 16 13 12 12 12 13 12 11 10 8 8 9 10 9 6 4 4 5 6
49 53 53 50 49 46 44 48 45 46 40 35 36 37 37 36 35 34 33 31 26 23 21 18 18 16 14 14 15 14 14 12 10 10 10 11 10 8 5 3 3 4 4
51 51 52 52 50 49 49 49 51 48 47 42 38 40 40 40 39 36 35 34 31 26 23 21 20 18 15 15 16 15 14 13 11 12 12 12 10 8 5 3 2 1 4
51 48 47 50 49 49 47 50 50 52 52 48 43 42 45 46 43 38 38 37 33 29 26 23 21 19 17 17 18 17 16 14 14 14 13 12 10 7 5 3 1 3 6
51 48 49 48 47 50 48 49 50 48 54 56 52 48 45 50 55 43 38 37 35 31 29 26 25 24 20 19 20 19 17 16 16 16 15 13 10 9 6 4 4 5 7
49 48 49 47 45 47 49 52 48 44 48 58 56 50 50 51 49 50 43 40 37 34 32 30 27 26 23 21 21 20 19 18 19 17 16 13 12 9 7 5 5 8 10
45 44 47 47 46 48 48 51 53 49 44 53 59 54 50 42 49 56 52 44 39 37 36 32 29 27 24 23 23 22 21 20 20 18 17 15 12 10 8 6 7 11 14
43 43 47 46 47 46 46 49 51 51 47 45 54 58 54 47 49 52 48 44 40 39 38 36 32 30 27 25 25 24 24 24 22 21 19 16 13 11 9 8 9 13 14
44 43 44 46 46 46 48 47 47 50 47 45 47 50 62 45 57 53 50 46 42 42 40 37 34 33 31 31 29 28 27 26 25 24 21 17 15 13 10 10 11 12 14
47 44 43 45 44 46 47 44 41 43 47 46 48 51 59 62 45 50 53 52 45 44 44 40 37 36 35 34 33 30 30 30 28 25 21 18 16 14 13 12 12 12 16
51 47 41 42 42 43 43 42 41 41 43 46 53 54 55 63 58 55 56 53 49 47 45 43 39 39 38 36 34 34 34 33 28 26 23 20 18 17 15 14 14 15 19
53 47 43 40 41 40 37 40 42 40 42 43 51 53 53 58 60 47 57 56 51 47 47 43 40 39 39 38 35 36 32 30 29 27 25 23 20 19 18 16 17 19 21
50 47 44 39 36 36 36 38 40 41 41 42 45 42 46 57 61 44 59 52 52 49 50 44 42 41 42 39 36 35 33 33 31 28 24 22 21 21 20 20 21 21 24
45 43 42 38 36 36 38 39 40 39 40 41 42 40 46 59 68 71 54 48 54 52 49 43 42 41 43 40 36 34 32 32 29 27 24 23 23 23 23 24 24 24 24
Wind_Direction
202 201 200 177 188 239 205 232 259 255 258 262 255 243 231 219 213 218 214 217 243 14 318 283 175 156 147 126 126 131 121 121 118 113 103 84 61 44 50 68 69 65 65
206 201 170 179 192 255 236 230 246 259 260 260 261 249 231 219 215 222 222 209 259 291 271 238 205 170 160 151 137 136 137 131 121 115 107 73 41 46 73 75 69 66 61
200 207 203 192 190 236 249 229 242 256 261 260 257 251 236 220 220 220 230 224 251 275 231 211 210 188 154 129 143 142 147 143 136 128 106 59 39 73 81 71 67 64 59
202 207 205 191 190 202 229 222 225 243 257 258 256 247 237 225 218 224 230 238 233 259 231 210 207 210 171 149 152 149 149 144 138 136 110 67 75 90 78 66 61 62 56
210 202 206 216 214 207 209 214 218 230 244 253 254 247 237 228 224 222 227 233 251 247 230 220 211 189 174 159 159 159 156 155 148 148 125 106 98 94 77 64 64 61 61
214 206 213 221 230 224 222 222 226 230 232 238 245 243 229 231 229 225 222 229 243 252 228 216 201 167 168 167 167 162 161 162 161 157 125 128 115 100 83 76 69 70 70
215 218 210 210 220 228 226 222 227 231 233 236 238 237 228 228 230 231 226 224 242 243 237 219 195 173 167 170 172 171 172 173 167 154 142 135 117 103 90 86 83 83 81
213 218 222 222 221 219 230 232 226 224 232 233 236 233 230 229 232 230 228 229 234 239 244 223 202 182 168 173 182 188 176 169 163 158 144 135 137 109 101 99 97 91 79
224 221 225 230 229 230 228 234 228 224 227 225 231 232 229 231 232 231 227 233 223 227 244 244 217 195 179 183 193 187 178 171 167 160 153 149 133 115 114 108 100 85 70
230 229 227 231 234 235 232 236 235 228 226 223 224 230 233 230 229 230 226 233 228 216 231 241 232 208 194 193 198 186 180 173 173 168 164 155 139 132 124 114 96 81 67
233 232 234 232 234 237 237 237 235 232 231 224 223 221 227 229 229 229 231 230 231 224 220 231 236 224 204 200 200 191 184 178 176 179 176 159 145 138 129 114 92 77 70
240 239 234 237 239 239 242 239 237 235 232 232 226 224 222 227 230 233 231 230 227 227 220 221 229 230 214 205 203 195 189 186 182 181 180 164 151 146 136 118 94 79 72
245 243 243 241 240 241 242 241 240 238 236 230 230 226 222 221 225 230 229 230 225 226 227 223 225 227 218 207 206 200 194 193 190 184 180 168 159 152 146 127 104 84 70
245 249 252 247 242 243 240 242 238 238 236 235 231 230 226 219 225 221 228 229 229 230 227 226 222 222 219 208 206 203 199 197 193 191 180 171 167 162 160 152 115 83 53
242 243 249 248 244 240 240 239 240 235 235 235 230 228 230 226 224 227 223 227 230 229 226 225 223 224 221 212 211 206 204 202 201 190 183 179 179 176 172 164 111 44 7
246 244 242 244 245 241 240 239 239 238 234 235 233 231 229 232 227 224 226 222 226 230 224 226 224 225 223 212 212 208 207 205 202 191 185 187 186 188 178 187 239 324 336
245 246 244 243 240 238 239 241 239 240 237 234 233 227 230 234 231 222 223 225 224 225 224 223 224 220 219 214 212 211 211 207 202 192 191 193 191 190 198 225 277 313 319
251 243 239 239 238 239 236 237 240 238 235 233 235 236 229 229 232 235 223 222 224 223 223 224 225 224 220 214 213 215 214 208 204 198 197 198 196 203 217 250 292 301 309
246 243 237 232 232 234 235 237 239 240 238 233 234 236 230 238 224 217 215 218 222 221 222 223 226 224 224 218 211 212 215 210 206 203 201 202 204 216 229 253 277 295 302
241 240 237 232 232 234 232 230 232 236 238 234 234 235 241 240 233 212 216 213 219 220 220 221 225 223 220 219 215 213 213 212 205 205 205 208 213 224 235 255 287 306 304
242 239 234 233 233 234 233 233 231 235 239 238 237 232 232 235 216 211 213 211 217 222 223 223 224 223 219 217 214 214 213 212 208 208 210 214 219 229 239 265 292 303 312
237 237 233 231 231 231 233 232 236 236 240 239 234 235 231 229 223 229 213 211 212 219 221 220 223 223 218 220 217 216 217 214 211 213 216 220 227 233 245 268 286 298 315
235 233 232 231 232 233 232 235 238 239 239 235 230 229 226 227 231 229 216 210 209 216 222 221 222 223 223 222 219 222 219 219 215 217 220 224 231 237 253 271 285 299 313
231 232 234 229 233 236 233 233 237 241 241 239 235 231 226 226 223 223 215 212 210 214 221 222 225 226 223 224 223 223 221 226 223 224 225 230 236 247 259 273 284 302 313
224 225 228 232 235 235 229 233 236 239 240 237 236 235 228 226 221 218 217 214 211 214 221 224 223 226 224 225 225 228 226 222 223 228 234 241 248 257 266 275 288 300 311
215 218 225 227 227 228 229 232 236 237 236 228 229 230 227 227 222 221 232 212 213 216 219 221 224 229 227 225 225 226 230 232 231 234 240 247 254 258 269 278 287 296 306